FLOCK 2E-1

Last updated on Sun Jun 17 2018 00:15:06 GMT+0000 (Coordinated Universal Time)

1 41483U 98067JD 18167.79424370 .23073250 12524-4 26456-3 0 9995 2 41483 51.5697 289.5415 0010562 139.3200 223.3455 16.49380679119324

Satellite not in orbit